SP5QWJ Weather Reports


time (UTC)temp
C
wind
direction
speed
KPH
gust
KPH
rain 1hr
cm
rain 24hr
cm
rain mn
cm
humidity
%
barometer
mb
20260506150042 24 0.0 0.0 0.00 0.00 0.00 50 1004.4
20260506144531 24 0.0 0.0 0.00 0.00 0.00 50 1004.4
20260506143019 23 0.0 0.0 0.00 0.00 0.00 50 1004.4
20260506141508 24 0.0 0.0 0.00 0.00 0.00 49 1004.4
20260506135956 25 0.0 0.0 0.00 0.00 0.00 48 1004.3
20260506134444 24 0.0 0.0 0.00 0.00 0.00 48 1004.3
20260506132933 25 0.0 0.0 0.00 0.00 0.00 47 1004.3
20260506131422 25 0.0 0.0 0.00 0.00 0.00 49 1004.1
20260506125910 24 0.0 0.0 0.00 0.00 0.00 49 1004.2
20260506124359 25 0.0 0.0 0.00 0.00 0.00 49 1004.2
20260506122847 25 0.0 0.0 0.00 0.00 0.00 49 1004.4
20260506115824 25 0.0 0.0 0.00 0.00 0.00 49 1004.4
20260506114312 25 0.0 0.0 0.00 0.00 0.00 49 1004.4
20260506112800 24 0.0 0.0 0.00 0.00 0.00 48 1004.3
20260506111249 25 0.0 0.0 0.00 0.00 0.00 48 1004.2
20260506105737 25 0.0 0.0 0.00 0.00 0.00 48 1004.3
20260506104226 25 0.0 0.0 0.00 0.00 0.00 47 1004.3
20260506102715 25 0.0 0.0 0.00 0.00 0.00 45 1004.3
20260506101203 25 0.0 0.0 0.00 0.00 0.00 46 1004.3
20260506094140 28 0.0 0.0 0.00 0.00 0.00 41 1004.3
20260506092629 32 0.0 0.0 0.00 0.00 0.00 39 1004.6
20260506091118 26 0.0 0.0 0.00 0.00 0.00 50 1004.4
20260506085607 25 0.0 0.0 0.00 0.00 0.00 48 1004.3
20260506084056 25 0.0 0.0 0.00 0.00 0.00 48 1004.3
20260506082544 24 0.0 0.0 0.00 0.00 0.00 51 1004.3
20260506081033 23 0.0 0.0 0.00 0.00 0.00 52 1004.1
20260506072459 22 0.0 0.0 0.00 0.00 0.00 65 1004.3
20260506070947 21 0.0 0.0 0.00 0.00 0.00 71 1004.3
20260506062411 19 0.0 0.0 0.00 0.00 0.00 91 1004.5
20260506060900 18 0.0 0.0 0.00 0.00 0.00 99 1004.6
20260506050810 14 0.0 0.0 0.00 0.00 0.00 100 1004.8
20260506043746 12 0.0 0.0 0.00 0.00 0.00 100 1004.5
20260506042235 12 0.0 0.0 0.00 0.00 0.00 100 1004.6
20260506040723 12 0.0 0.0 0.00 0.00 0.00 100 1004.6
20260506035211 12 0.0 0.0 0.00 0.00 0.00 100 1004.8
20260506033659 12 0.0 0.0 0.00 0.00 0.00 100 1004.7
20260506032148 12 0.0 0.0 0.00 0.00 0.00 100 1004.7
20260506030637 12 0.0 0.0 0.00 0.00 0.00 100 1004.8
20260506025126 11 0.0 0.0 0.00 0.00 0.00 100 1004.8
20260506023615 12 0.0 0.0 0.00 0.00 0.00 100 1004.9
20260506022103 12 0.0 0.0 0.00 0.00 0.00 100 1005.0
20260506020550 12 0.0 0.0 0.00 0.00 0.00 100 1005.2
20260506015037 12 0.0 0.0 0.00 0.00 0.00 100 1005.1
20260506013527 12 0.0 0.0 0.00 0.00 0.00 100 1005.2
20260506012015 13 0.0 0.0 0.00 0.00 0.00 100 1005.2
20260506010504 13 0.0 0.0 0.00 0.00 0.00 100 1005.2
20260506004953 13 0.0 0.0 0.00 0.00 0.00 100 1005.3
20260506003441 14 0.0 0.0 0.00 0.00 0.00 100 1005.1